Regional Weather Roundup
Issued by NWS

Home | Current Version | Previous Version | Text Only | Print | Product List | Glossary On
Versions: 1 2 3 4 5 6 7 8 9 10 11 12 13 14 15 16 17 18 19 20 21 22 23 24 25 26 27 28 29 30 31 32 33 34 35 36 37 38 39 40 41 42 43 44 45 46 47 48 49 50
000
ASUS43 KMKX 200921
RWRWI

WISCONSIN REGIONAL WEATHER ROUNDUP
NATIONAL WEATHER SERVICE MILWAUKEE/SULLIVAN WI
400 AM CDT MON OCT 20 2014

NOTE: "FAIR" INDICATES FEW OR NO CLOUDS BELOW 12,000 FEET WITH NO
SIGNIFICANT WEATHER AND/OR OBSTRUCTIONS TO VISIBILITY.

WIZ001-002-006>008-014>016-023>028-201000-
NORTHWEST WISCONSIN

CITY           SKY/WX    TMP DP  RH WIND       PRES   REMARKS
SUPERIOR ARPT  CLEAR     42  39  91 SW3       29.87R
ASHLAND        CLOUDY    44  41  89 CALM      29.85R
HAYWARD        MOCLDY    38  36  92 S3        29.85R
SIREN          FAIR      38  37  96 CALM      29.88R
CUMBERLAND     CLEAR     45  39  81 NW7       29.87R
RICE LAKE      CLEAR     45  40  82 W5        29.88R
CHETEK         CLEAR     44  41  91 CALM      29.86R
LADYSMITH      CLEAR     45  41  86 NW3       29.85R
EAU CLAIRE     CLEAR     48  41  76 W3        29.86R
MENOMONIE      CLEAR     47  41  79 W5        29.88R
NEW RICHMOND   CLEAR     45  40  82 NW6       29.90R
OSCEOLA        CLEAR     40  38  91 CALM      29.92R
$$

WIZ003>005-009-010-017-018-201000-
NORTH CENTRAL WISCONSIN

CITY           SKY/WX    TMP DP  RH WIND       PRES   REMARKS
MANITOWISH WTR CLOUDY    45  43  93 NW6       29.80R
ARBOR VITAE    CLOUDY    46  42  87 NW7       29.79S
WOODRUFF       CLOUDY    46  42  87 NW7       29.79S
RHINELANDER    CLOUDY    46  42  86 NW6       29.79R
EAGLE RIVER    CLOUDY    44  44 100 CALM      29.78R
LAND O LAKES   CLOUDY    47  43  87 N12       29.79R
PHILLIPS       FAIR      39  38  99 CALM      29.81R
TOMAHAWK       CLEAR     41  40  95 CALM      29.80R
MEDFORD        CLEAR     43  40  91 NW7       29.81R
MERRILL        CLEAR     33  33 100 NW5       29.80R WCI  29
$$

WIZ029-030-035-036-043>047-201000-
CENTRAL WISCONSIN

CITY           SKY/WX    TMP DP  RH WIND       PRES   REMARKS
WAUSAU         CLEAR     42  41  96 NW5       29.78R
MOSINEE        CLEAR     41  41 100 NW9       29.79R
MARSHFIELD     CLEAR     48  43  82 NW15      29.80R
STEVENS POINT  PTCLDY    35  34  98 CALM      29.79R
WAUPACA        MOCLDY    41  40  96 CALM      29.77S FOG
WAUTOMA        PTCLDY    36  36 100 CALM      29.78S
WISC RAPIDS    PTCLDY    40  38  93 NW7       29.80R
CAMP DOUGLAS   MOCLDY    49  49 100 NW12      29.81R
$$

WIZ011>013-019>022-031-037>040-048>050-201000-
NORTHEAST WISCONSIN

CITY           SKY/WX    TMP DP  RH WIND       PRES   REMARKS
ANTIGO         FOG       32  32 100 CALM      29.78R VSB 1/4
SHAWANO        PTCLDY    40  39  94 CALM      29.76S FOG
OCONTO         CLEAR     40  40 100 CALM      29.74S
STURGEON BAY   CLEAR     46  43  87 W5        29.75S
GREEN BAY      CLEAR     44  42  93 SW3       29.76R
MANITOWOC      CLEAR     48  44  86 W7        29.76S
APPLETON       CLEAR     41  41 100 W6        29.77R
CLINTONVILLE   CLOUDY    36  36 100 CALM      29.76S FOG
OSHKOSH        CLEAR     47  42  83 W5        29.76S
$$

WIZ032>034-041-042-053>061-201000-
SOUTHWEST WISCONSIN

CITY           SKY/WX    TMP DP  RH WIND       PRES   REMARKS
LA CROSSE      CLEAR     47  41  80 NW7       29.85R
SPARTA         CLEAR     50  42  74 W7        29.85R
VIROQUA        CLEAR     48  43  81 NW10      29.83S
BOSCOBEL       CLEAR     45  42  89 CALM      29.83R
PRAIRIE DU CHI CLEAR     48  42  80 W6        29.84S
PLATTEVILLE    CLEAR     46  43  90 CALM      29.83R
$$

WIZ056-057-062-063-064-067-068-201000-
SOUTH CENTRAL WISCONSIN

CITY           SKY/WX    TMP DP  RH WIND       PRES   REMARKS
REEDSBURG      PTCLDY    45  43  90 CALM      29.79R
BARABOO/DELLS  PTCLDY    48  43  82 W6        29.79R
LONE ROCK      CLEAR     52  44  74 W10       29.81R
MINERAL POINT  CLEAR     48  43  81 W7        29.81R
MADISON        CLEAR     46  43  89 CALM      29.78S
MIDDLETON      CLEAR     49  43  79 CALM      29.79S
WATERTOWN      CLEAR     40  40 100 CALM      29.77F
MONROE         CLEAR     46  43  87 W14       29.79S
JANESVILLE     CLEAR     46  41  81 SW5       29.79F
$$

WIZ051-052-058>065-066-070>072-201000-
SOUTHEAST WISCONSIN

CITY           SKY/WX    TMP DP  RH WIND       PRES   REMARKS
MILWAUKEE      PTCLDY    49  42  77 SW6       29.78F
WAUKESHA       CLEAR     45  41  87 SW3       29.79S
MILWAUKEE/TIMM CLEAR     45  41  87 SW6       29.79S
RACINE         CLEAR     50  42  74 SW10      29.79F
BURLINGTON     CLEAR     43  40  91 S3        29.80S
KENOSHA        CLEAR     49  43  80 SW9       29.79F
FOND DU LAC    CLEAR     46  41  82 CALM      29.77S
SHEBOYGAN      CLEAR     45  41  86 W6        29.76F
WEST BEND      CLEAR     46  41  81 SW5       29.77F
JUNEAU         CLEAR     44  41  91 S3        29.78S
$$

LSZ147-162-201000-
LAKE SUPERIOR

STATION/POSITION TIME  TEMP    WIND        PRES    WAVE
                       AIR SEA DIR/SP/G            HT/PER
                 (UTC) (F)     (DEG/KT/KT) (MB)    (FT/S)
W MID LAKE BUOY  0850   47 46  310/  6/  6 1009.7R   1
DEVILS ISLAND    0900   51     330/  9/ 10 1010.7R
PORT WING        0800   51     310/  5/  7 1010.5R
SAXON HARBOR     0800   51     300/  6/  9 1009.8R
$$

LMZ867-665-643>646-201000-
LAKE MICHIGAN

STATION/POSITION TIME  TEMP    WIND        PRES    WAVE
                       AIR SEA DIR/SP/G            HT/PER
                 (UTC) (F)     (DEG/KT/KT) (MB)    (FT/S)
CHAMBERS ISLAND  0800   51     230/  5/  8 1007.1S
N MID LAKE BUOY  0850   52 52  250/ 10/ 12 1006.7F   5/ 7
NORTHPORT PIER   0800   53     260/  4/  8 1007.1S
KEWAUNEE LAKESHO 0900   46     290/  5/  7 1006.3F
SHEBOYGAN LAKESH 0900   50 51  260/ 11/ 14 1007.9F
PORT WASHINGTON  0800   52     260/ 10/ 13 1008.8F
ATWATER BUOY     0900   52     240/ 14/ 19 1009.1F
MILWAUKEE LAKESH 0900   52     260/ 13/ 17   N/A
S MID LAKE BUOY  0850   55 54  230/ 17/ 21 1008.9F   5/ 6
KENOSHA   LAKESH 0900   52     250/ 13/ 18 1008.5F
$$

TC  - TEMPERATURE IN CELSIUS
VSB - VISIBILITY IN STATUTE MILES
WCI - WIND CHILL INDEX
HX  - HEAT INDEX



USA.gov is the U.S. government's official web portal to all federal, state and local government web resources and services.